www.pogodaiklimat.ru

Погода и климат >> Архив погоды >> Индия >> Naliya


ПОГОДА в Naliya

  • Прогноз погоды в Naliya
  • Монитор погоды в Naliya
  • Климат города

АРХИВ ПОГОДЫ в Naliya

Время (UTC), дата Ветер
(напр.,м/с)
 
Видим.   Явления Облачность Т
(С)
Тd
(С)
f
(%)
Тe
(С)
Тes
(С)
Комфортность P
(гПа)
Po
(гПа)
Тmin
(С)
Tmax
(С)
R
(мм)
R24
(мм)
S
(см)
06 23.04 ЮЗ 3 10 км 5/5 600 м
[Sc]
+30.4 +26.2 78 +46 +54 опасность
перегрева
1008.7 1009.0
09 23.04 ЮЗ 2 10 км 5/5 600 м
[Sc]
+31.6 +26.0 72 +47 +56 опасность
перегрева
1007.0 1007.0
12 23.04 ЮЗ 3 10 км 5/5 600 м
[Sc]
+31.0 +25.1 71 +45 +46 опасность
перегрева
1005.5 1006.0 +32.6
15 23.04 Ю 3 4000 м 5/5 600 м
[Sc]
+28.0 +25.7 87 +41 +41 опасность
перегрева
1006.5 1007.0
18 23.04 ЮЗ 3 4000 м 3/3 600 м
[Sc]
+27.4 +25.7 90 +40 +40 очень
душно
1007.3 1007.0
21 23.04 ЮЗ 2 4000 м 3/3 600 м
[Sc]
+27.4 +25.1 87 +39 +39 очень
душно
1006.2 1006.0
00 24.04 штиль 0 4000 м 3/3 600 м
[Sc]
+26.8 +25.1 90 +39 +39 очень
душно
1006.3 1006.0
03 24.04 ЮЗ 2 10 км 3/3 600 м
[Sc]
+28.2 +25.4 85 +41 +45 опасность
перегрева
1008.2 1008.0 +25.8
06 24.04 Ю 3 4000 м 5/5 600 м
[Sc]
+30.4 +26.2 78 +46 +54 опасность
перегрева
1009.0 1009.0
09 24.04 ЮЗ 3 10 км 5/5 600 м
[Sc]
+31.6 +25.7 71 +47 +54 опасность
перегрева
1007.6 1008.0
12 24.04 ЮЗ 3 10 км 5/5 600 м
[Sc]
+30.6 +27.0 81 +48 +50 опасность
перегрева
1006.6 1007.0 +33.2
15 24.04 ЮЗ 2 10 км 3/3 600 м
[Sc]
+28.0 +26.3 91 +43 +43 опасность
перегрева
1007.7 1008.0
18 24.04 ЮЗ 1 4000 м ясно +27.0 +25.0 89 +39 +39 очень
душно
1009.1 1009.0
21 24.04 штиль 0 4000 м 3/3 600 м
[Sc]
+25.6 +25.0 96 +36 +36 очень
душно
1008.3 1008.0
00 25.04 ЮЗ 1 4000 м 3/3 600 м
[Sc]
+25.2 +24.0 93 +35 +35 очень
душно
1008.5 1009.0
03 25.04 ЮЗ 2 10 км 3/3 600 м
[Sc]
+27.2 +25.2 89 +39 +43 очень
душно
1010.0 1010.0 +24.2
06 25.04 З 2 10 км ясно +31.6 +25.1 69 +46 +65 опасность
перегрева
1010.5 1011.0
09 25.04 ЮЗ 3 10 км ясно +33.0 +26.0 67 +49 +66 опасность
перегрева
1008.6 1009.0
12 25.04 ЮЗ 3 10 км ясно +31.0 +26.6 77 +47 +51 опасность
перегрева
1007.4 1007.0 +33.8
15 25.04 З 3 4000 м ясно +27.6 +26.2 92 +42 +42 опасность
перегрева
1008.3 1008.0
18 25.04 З 2 4000 м ясно +26.8 +26.0 95 +40 +40 очень
душно
1009.2 1009.0
21 25.04 ЮЗ 2 4000 м ясно +26.4 +25.5 95 +39 +39 очень
душно
1008.2 1008.0
00 26.04 З 2 4000 м ясно +24.6 +24.0 96 +34 +34 очень
душно
1008.2 1008.0
03 26.04 ЮЗ 2 10 км ясно +27.6 +25.9 90 +41 +46 опасность
перегрева
1009.5 1010.0 +24.2
06 26.04 ЮЗ 3 10 км ясно +31.0 +27.1 80 +49 +65 опасность
перегрева
1010.2 1010.0
09 26.04 З 4 10 км ясно +32.8 +27.3 73 +52 +64 опасность
перегрева
1008.9 1009.0
12 26.04 ЮЗ 5 10 км ясно +31.0 +27.7 83 +51 +53 опасность
перегрева
1007.8 1008.0 +33.5
15 26.04 ЮЗ 3 4000 м ясно +27.8 +26.7 94 +43 +43 опасность
перегрева
1008.8 1009.0
18 26.04 ЮЗ 2 4000 м ясно +27.0 +25.9 94 +40 +40 очень
душно
1009.9 1010.0
21 26.04 ЮЗ 2 4000 м ясно +26.2 +25.1 94 +38 +38 очень
душно
1008.8 1009.0
00 27.04 СЗ 1 4000 м 3/0
[]
+25.6 +24.4 93 +36 +36 очень
душно
1008.3 1008.0
03 27.04 ЮЗ 3 10 км 6/6 600 м
[Sc]
+28.2 +23.6 76 +38 +40 очень
душно
1009.5 1010.0 +25.6
06 27.04 ЮЗ 4 10 км 5/5 600 м
[Sc]
+32.0 +22.7 58 +42 +49 опасность
перегрева
1010.7 1011.0
09 27.04 ЮЗ 4 10 км ясно +32.4 +22.5 56 +42 +54 опасность
перегрева
1009.6 1010.0
12 27.04 ЮЗ 3 10 км 4/4 600 м
[Sc]
+30.8 +23.9 67 +42 +44 опасность
перегрева
1008.6 1009.0 +33.7
15 27.04 З 2 4000 м ясно +28.0 +24.6 82 +40 +40 очень
душно
1010.0 1010.0
18 27.04 З 2 4000 м ясно +27.4 +24.8 86 +39 +39 очень
душно
1011.1 1011.0
21 27.04 З 2 4000 м ясно +26.4 +25.0 92 +38 +38 очень
душно
1009.2 1009.0
00 28.04 З 2 4000 м ясно +25.0 +24.4 96 +35 +35 очень
душно
1008.0 1008.0
03 28.04 З 3 10 км 6/6 600 м
[Sc]
+28.4 +25.0 82 +41 +43 опасность
перегрева
1010.1 1010.0 +24.8
06 28.04 З 3 10 км 3/3 600 м
[Sc]
+31.8 +24.1 64 +44 +55 опасность
перегрева
1010.9 1011.0
09 28.04 З 4 10 км 4/4 600 м
[Sc]
+32.8 +25.2 64 +47 +54 опасность
перегрева
1008.4 1008.0
12 28.04 З 3 10 км 6/6 600 м
[Sc]
+30.4 +25.6 76 +45 +46 опасность
перегрева
1007.2 1007.0 +33.5
15 28.04 З 3 4000 м ясно +28.2 +25.7 86 +42 +42 опасность
перегрева
1008.2 1008.0
18 28.04 З 3 4000 м ясно +28.0 +25.4 86 +41 +41 опасность
перегрева
1008.9 1009.0
21 28.04 З 2 4000 м ясно +27.6 +25.6 89 +41 +41 опасность
перегрева
1007.8 1008.0
00 29.04 З 1 4000 м ясно +26.8 +25.7 94 +40 +40 очень
душно
1007.5 1008.0
03 29.04 З 3 10 км ясно +28.8 +25.4 82 +42 +47 опасность
перегрева
1009.2 1009.0 +26.2
06 29.04 З 3 10 км 6/6
[Sc]
+32.2 +27.0 74 +50 +56 опасность
перегрева
1010.5 1011.0
09 29.04 З 3 10 км 3/3 600 м
[Sc]
+33.4 +27.9 73 +54 +64 опасность
перегрева
1008.7 1009.0
12 29.04 З 3 10 км ясно +31.8 +27.7 79 +51 +55 опасность
перегрева
1007.4 1007.0 +34.8
15 29.04 З 2 4000 м ясно +28.4 +27.0 92 +45 +45 опасность
перегрева
1008.5 1009.0
18 29.04 ЮЗ 3 4000 м ясно +27.4 +26.6 95 +42 +42 опасность
перегрева
1008.9 1009.0
21 29.04 ЮЗ 1 4000 м ясно +26.6 +25.7 95 +39 +39 очень
душно
1007.9 1008.0
00 30.04 З 1 4000 м ясно +26.4 +25.8 97 +39 +39 очень
душно
1007.7 1008.0

 

Местоположение метеостанции Naliya (Gujarat, Индия): широта 23.25 долгота 68.85 высота над уровнем моря 21 м.

В архиве по умолчанию представлена погода в Naliya за последнюю неделю. Архивные данные за месяц целиком и за предыдущие месяцы, начиная с января 2011 года, Вы можете получить, выбрав интересующий диапазон дат из раскрывающегося списка и нажав кнопку "Ввод!".

Внимание! Время в таблицах - всемирное. Для получения местного времени необходимо прибавить поправку, которая в Naliya равна 5.5 ч.

Смотрите также архив погоды в соседних городах и на ближайших метеорологических станциях:

Погода в Mandvi (Gujarat, Индия) (64 км)
Погода в Bhuj-Rudramata (Gujarat, Индия) (84 км)
Погода в Okha (Gujarat, Индия) (90 км)
Погода в Dwarka (Gujarat, Индия) (101 км)
Погода в Kandla (Gujarat, Индия) (129 км)
Погода в New Kandla (Gujarat, Индия) (143 км)
Погода в Badin (Пакистан) (154 км)
Погода в Porbandar (Gujarat, Индия) (197 км)
Погода в Rajkot (Gujarat, Индия) (224 км)
Погода в Hyderabad Airport (Пакистан) (241 км)

Пояснения к столбцам:

Ветер - указаны скорость ветра в м/с - средняя за 10 мин, порывы в срок и между сроками (в фигурных скобках) и направление, откуда дует ветер: С - северный, СВ - северо-восточный, В - восточный, ЮВ - юго-восточный, Ю - южный, ЮЗ - юго-западный, З - западный, СЗ - северо-западный.
Видимость - горизонтальная дальность видимости в метрах или километрах. При видимости от 1 до 10 км при отсутствии осадков обычно наблюдается дымка, при ухудшении видимости до 1 км и менее - туман. В сухую погоду видимость может ухудшаться дымом, пылью или мглою.
Явления - указаны атмосферные явления, наблюдавшиеся в срок или в последний час перед сроком; фигурными скобками обозначены явления, наблюдавшиеся между сроками (за 1-3 часа до срока); квадратными скобками обозначены град или гололедные отложения с указанием их диаметра в мм.
Облачность - указаны через наклонную черту общая и нижняя облачность в баллах и высота нижней границы облаков в метрах; квадратными скобками обозначены формы облаков: Ci - перистые, Cs - перисто-слоистые, Cc - перисто-кучевые, Ac - высококучевые, As - высокослоистые, Sc - слоисто-кучевые, Ns - слоисто-дождевые, Cu - кучевые, Cb - кучево-дождевые. Подробнее классификацию облаков см. в Атласе облаков (PDF).
T - Температура воздуха - температура, измеренная на высоте 2 м над землей.
Td - Температура точки росы - температура, при понижении до которой содержащийся в воздухе водяной пар достигнет насыщения.
f - Относительная влажность воздуха - влажноcть воздуха, измеренная на высоте 2 м над землей.
Te - Эффективная температура - температура, которую ощущает одетый по сезону человек в тени. Характеристика душности погоды. При расчете учитывается влияние влажности воздуха и скорости ветра на теплоощущения человека.
Tes - Эффективная температура на солнце - температура, которую ощущает человек, с поправкой на солнечный нагрев. Характеристика знойности погоды. Зависит от высоты солнца над горизонтом, облачности и скорости ветра. Ночью, в пасмурную погоду, а также при ветре 12 м/с и более поправка равна нулю.
P - Атмосферное давление - приведенное к уровню моря атмосферное давление.
Po - Атмосферное давление - измеренное на уровне метеостанции атмосферное давление.
Tmin - Минимальная температура - минимум температуры воздуха на высоте 2 м над землей.
Tmax - Максимальная температура - максимум температуры воздуха на высоте 2 м над землей.
R - Количество осадков - Количество выпавших осадков за период времени, мм. При наведении курсора мыши на число - период времени, за который выпало указанное количество осадков.
R24 - Количество осадков - Количество выпавших осадков за 24 часа, мм.
S - Снежный покров - Высота снежного покрова, см. При наведении курсора мыши на число - состояние снежного покрова и степень покрытия местности в баллах.